Stündliche Wetter Aalten

Heute, 27 Februar, Samstag

Zeit Temperatur Niederschläge Wind Luftdruck Luftfeuchtigkeit
00:00 +3°C° 0 mm 2 m/S 775 mmHg 96%
01:00 +3°C° 0 mm 2 m/S 775 mmHg 96%
02:00 +2°C° 0 mm 2 m/S 775 mmHg 95%
03:00 +3°C° 0 mm 1 m/S 775 mmHg 95%
04:00 +3°C° 0 mm 1 m/S 775 mmHg 94%
05:00 +3°C° 0 mm 1 m/S 776 mmHg 94%
06:00 +3°C° 0 mm 1 m/S 776 mmHg 93%
07:00 +4°C° 0 mm 1 m/S 776 mmHg 87%
08:00 +5°C° 0 mm 1 m/S 776 mmHg 81%
09:00 +7°C° 0 mm 1 m/S 776 mmHg 75%
10:00 +8°C° 0 mm 1 m/S 777 mmHg 69%
11:00 +9°C° 0 mm 1 m/S 777 mmHg 63%
12:00 +10°C° 0 mm 1 m/S 777 mmHg 57%
13:00 +10°C° 0 mm 2 m/S 776 mmHg 57%
14:00 +10°C° 0 mm 2 m/S 776 mmHg 57%
15:00 +10°C° 0 mm 2 m/S 776 mmHg 57%
16:00 +9°C° 0 mm 2 m/S 776 mmHg 63%
17:00 +8°C° 0 mm 2 m/S 776 mmHg 69%
18:00 +7°C° 0 mm 2 m/S 776 mmHg 74%
19:00 +6°C° 0 mm 2 m/S 776 mmHg 78%
20:00 +6°C° 0 mm 2 m/S 776 mmHg 81%
21:00 +5°C° 0 mm 2 m/S 776 mmHg 84%
22:00 +5°C° 0 mm 2 m/S 776 mmHg 86%
23:00 +5°C° 0 mm 1 m/S 776 mmHg 87%

Morgen, 28 Februar, Sonntag

Zeit Temperatur Niederschläge Wind Luftdruck Luftfeuchtigkeit
00:00 +5°C° 0 mm 1 m/S 776 mmHg 88%
01:00 +5°C° 0 mm 1 m/S 776 mmHg 89%
02:00 +4°C° 0 mm 1 m/S 775 mmHg 90%
03:00 +4°C° 0 mm 1 m/S 775 mmHg 90%
04:00 +4°C° 0 mm 1 m/S 775 mmHg 91%
05:00 +4°C° 0 mm 1 m/S 775 mmHg 92%
06:00 +2°C° 0 mm 2 m/S 775 mmHg 92%
07:00 +4°C° 0 mm 2 m/S 775 mmHg 88%
08:00 +5°C° 0 mm 2 m/S 775 mmHg 83%
09:00 +7°C° 0 mm 1 m/S 774 mmHg 79%
10:00 +7°C° 0 mm 2 m/S 774 mmHg 73%
11:00 +9°C° 0 mm 2 m/S 774 mmHg 67%
12:00 +10°C° 0 mm 2 m/S 774 mmHg 62%
13:00 +10°C° 0 mm 2 m/S 774 mmHg 62%
14:00 +12°C° 0 mm 2 m/S 774 mmHg 61%
15:00 +12°C° 0 mm 2 m/S 773 mmHg 61%
16:00 +10°C° 0 mm 2 m/S 773 mmHg 67%
17:00 +9°C° 0 mm 2 m/S 773 mmHg 73%
18:00 +7°C° 0 mm 2 m/S 773 mmHg 79%
19:00 +7°C° 0 mm 2 m/S 773 mmHg 82%
20:00 +6°C° 0 mm 2 m/S 773 mmHg 86%
21:00 +5°C° 0 mm 3 m/S 773 mmHg 89%
22:00 +5°C° 0 mm 2 m/S 774 mmHg 91%
23:00 +5°C° 0 mm 2 m/S 774 mmHg 92%

übermorgen, 1 März, Montag

Zeit Temperatur Niederschläge Wind Luftdruck Luftfeuchtigkeit
00:00 +5°C° 0 mm 2 m/S 774 mmHg 94%
01:00 +4°C° 0 mm 2 m/S 773 mmHg 93%
02:00 +4°C° 0 mm 2 m/S 773 mmHg 93%
03:00 +4°C° 0 mm 2 m/S 773 mmHg 93%
04:00 +3°C° 0 mm 2 m/S 773 mmHg 92%
05:00 +3°C° 0 mm 2 m/S 773 mmHg 92%
06:00 +2°C° 0 mm 2 m/S 773 mmHg 92%
07:00 +3°C° 0 mm 3 m/S 773 mmHg 86%
08:00 +4°C° 0 mm 3 m/S 773 mmHg 80%
09:00 +5°C° 0 mm 3 m/S 773 mmHg 75%
10:00 +8°C° 0 mm 3 m/S 773 mmHg 68%
11:00 +9°C° 0 mm 3 m/S 773 mmHg 62%
12:00 +10°C° 0 mm 4 m/S 772 mmHg 56%
13:00 +11°C° 0 mm 4 m/S 772 mmHg 55%
14:00 +11°C° 0 mm 4 m/S 771 mmHg 55%
15:00 +11°C° 0 mm 4 m/S 771 mmHg 54%
16:00 +10°C° 0 mm 4 m/S 771 mmHg 59%
17:00 +7°C° 0 mm 4 m/S 771 mmHg 65%
18:00 +7°C° 0 mm 3 m/S 771 mmHg 70%
19:00 +7°C° 0 mm 3 m/S 771 mmHg 74%
20:00 +5°C° 0 mm 3 m/S 771 mmHg 77%
21:00 +5°C° 0 mm 3 m/S 771 mmHg 80%
22:00 +4°C° 0 mm 3 m/S 771 mmHg 82%
23:00 +4°C° 0 mm 3 m/S 771 mmHg 84%

2 März, Dienstag

Zeit Temperatur Niederschläge Wind Luftdruck Luftfeuchtigkeit
00:00 +3°C° 0 mm 3 m/S 771 mmHg 85%
01:00 +3°C° 0 mm 3 m/S 770 mmHg 86%
02:00 +4°C° 0 mm 2 m/S 770 mmHg 86%
03:00 +4°C° 0 mm 2 m/S 770 mmHg 86%
04:00 +4°C° 0 mm 2 m/S 770 mmHg 86%
05:00 +3°C° 0 mm 2 m/S 770 mmHg 86%
06:00 +3°C° 0 mm 2 m/S 770 mmHg 87%
07:00 +5°C° 0 mm 2 m/S 770 mmHg 81%
08:00 +6°C° 0 mm 2 m/S 770 mmHg 76%
09:00 +8°C° 0 mm 2 m/S 770 mmHg 71%
10:00 +9°C° 0 mm 2 m/S 770 mmHg 66%
11:00 +12°C° 0 mm 2 m/S 769 mmHg 60%
12:00 +13°C° 0 mm 2 m/S 769 mmHg 55%
13:00 +13°C° 0 mm 2 m/S 769 mmHg 55%
14:00 +14°C° 0 mm 2 m/S 769 mmHg 54%
15:00 +14°C° 0 mm 2 m/S 768 mmHg 53%
16:00 +13°C° 0 mm 1 m/S 768 mmHg 59%
17:00 +11°C° 0 mm 1 m/S 769 mmHg 64%
18:00 +9°C° 0 mm 0 m/S 769 mmHg 70%
19:00 +8°C° 0 mm 0 m/S 769 mmHg 72%
20:00 +8°C° 0 mm 0 m/S 769 mmHg 73%
21:00 +8°C° 0 mm 0 m/S 769 mmHg 74%
22:00 +7°C° 0 mm 0 m/S 769 mmHg 76%
23:00 +8°C° 0 mm 1 m/S 769 mmHg 78%

3 März, Mittwoch

Zeit Temperatur Niederschläge Wind Luftdruck Luftfeuchtigkeit
00:00 +8°C° 0 mm 1 m/S 769 mmHg 80%
01:00 +7°C° 0 mm 1 m/S 769 mmHg 82%
02:00 +7°C° 0 mm 1 m/S 769 mmHg 84%
03:00 +7°C° 0 mm 1 m/S 769 mmHg 86%
04:00 +7°C° 0 mm 1 m/S 769 mmHg 87%
05:00 +6°C° 0 mm 1 m/S 769 mmHg 88%
06:00 +6°C° 0 mm 1 m/S 769 mmHg 90%
07:00 +7°C° 0 mm 1 m/S 769 mmHg 87%
08:00 +8°C° 0 mm 1 m/S 769 mmHg 84%
09:00 +9°C° 0 mm 1 m/S 769 mmHg 81%
10:00 +11°C° 0 mm 1 m/S 769 mmHg 77%
11:00 +12°C° 0 mm 1 m/S 769 mmHg 72%
12:00 +13°C° 0 mm 1 m/S 768 mmHg 68%
13:00 +13°C° 0.1 mm 2 m/S 768 mmHg 70%
14:00 +13°C° 0.1 mm 2 m/S 768 mmHg 71%
15:00 +13°C° 0.1 mm 2 m/S 768 mmHg 73%
16:00 +12°C° 0.1 mm 2 m/S 768 mmHg 77%
17:00 +11°C° 0.1 mm 1 m/S 767 mmHg 80%
18:00 +10°C° 0.1 mm 1 m/S 767 mmHg 84%
19:00 +10°C° 0 mm 1 m/S 767 mmHg 85%
20:00 +9°C° 0 mm 1 m/S 767 mmHg 86%
21:00 +9°C° 0 mm 1 m/S 767 mmHg 86%
22:00 +9°C° 0 mm 1 m/S 767 mmHg 87%
23:00 +9°C° 0 mm 1 m/S 767 mmHg 87%

4 März, Donnerstag

Zeit Temperatur Niederschläge Wind Luftdruck Luftfeuchtigkeit
00:00 +9°C° 0 mm 1 m/S 766 mmHg 87%
01:00 +8°C° 0 mm 1 m/S 766 mmHg 89%
02:00 +8°C° 0 mm 1 m/S 766 mmHg 91%
03:00 +7°C° 0 mm 2 m/S 766 mmHg 93%
04:00 +6°C° 0 mm 2 m/S 766 mmHg 93%
05:00 +6°C° 0 mm 2 m/S 766 mmHg 94%
06:00 +6°C° 0 mm 2 m/S 765 mmHg 94%
07:00 +6°C° 0 mm 2 m/S 765 mmHg 89%
08:00 +6°C° 0 mm 2 m/S 766 mmHg 84%
09:00 +7°C° 0 mm 2 m/S 766 mmHg 79%
10:00 +8°C° 0 mm 2 m/S 765 mmHg 71%
11:00 +9°C° 0 mm 2 m/S 765 mmHg 64%
12:00 +10°C° 0 mm 2 m/S 765 mmHg 56%
13:00 +10°C° 0 mm 3 m/S 765 mmHg 55%
14:00 +10°C° 0 mm 3 m/S 764 mmHg 54%
15:00 +10°C° 0 mm 3 m/S 764 mmHg 53%
16:00 +9°C° 0 mm 3 m/S 764 mmHg 59%
17:00 +7°C° 0 mm 3 m/S 764 mmHg 65%
18:00 +6°C° 0 mm 2 m/S 764 mmHg 71%
19:00 +5°C° 0 mm 2 m/S 764 mmHg 75%
20:00 +4°C° 0 mm 2 m/S 764 mmHg 79%
21:00 +4°C° 0 mm 2 m/S 764 mmHg 83%
22:00 +4°C° 0 mm 2 m/S 764 mmHg 86%
23:00 +3°C° 0 mm 2 m/S 764 mmHg 89%
Mehr zeigen

Wir brauchen deine Erlaubnis

Meteoprog und unser Service Anbieter werden persönliche Daten aufbewahren, so wie Cookies, Geräte Bezeichnung oder ähnliche Technologien von deinem Gerät und Prozess, so wie Persönliche Daten Inhalte und Werbungen, genauso wie social Media und den Verkehr zu analysieren.

  • Aufbewahrung und/oder Zugang zu deiner Geräte Informationen.

    Cookies, Geräte Bezeichnung oder andere Informationen, können aufbewahrt oder Zugang zu deinem Gerät erhalten, für den Grund, der oben angegeben wird.

  • Personalisierte Werbung und Inhalte, Messungen, Einblick in das Publikum und Produkt Entwicklung.

    Werbungen und Inhalte können personalisiert werden, basierend auf ein Profil. Mehr Daten können besser personalisierte Werbungen und Inhalte hinzufügen. Werbung und Inhalte können gezeigt und gemessen werden. Einblicke über das Publikum, welche die Werbung gesehen haben und den Inhalt, können abgeleitet werden. So wie Daten können genutzt werden, um es zu verbessern oder die Benutzer Erfahrung zu verbessern das System und die Software.

Wenn du “Ich stimme zu” klickst, erlaubst du uns, die Cookies zu benutzen die Geräte Bezeichnung, den Web oder ähnliche Technologien zu benutzen. Deine Settings, können in deinem Gerät bei deinem Browser geändert werden.

Für den bestimmten Zweck, berechtigten Interessen beruhen darauf, mehr als auf den Inhalt. Du kannst mehr darüber in unseren Privaten und Cookie Politik lesen.